Terug naar catalogus

DELTA 1 DEB

ActiefSSO
NORAD 21567·DEBRIS·🇺🇸 United States

Gelanceerd Jun 12, 1975 vanaf Vandenberg Space Force Base

Loading…

Volgende Passages (komende 24 uur)

TLE

VersSource: Space-Track

Epoch: Sep 14, 2026, 10:13 UTC

1 21567U 75052HM  26257.42619624  .00000419  00000-0  48969-3 0  9999
2 21567  99.8649  66.3740 0242527   7.1047  21.6229 13.62749767748277

Volg DELTA 1 DEB in realtime met AllMySat

Download on the App Store